This is the latest recevied weather packets stored in our database for station/object WX4ET. If no packets are shown the sender has not sent any weather packets the latest 1 day(s).
| Time | Temp. | Humidity | Pressure | Rain* | Wind** | Luminosity | Snow |
|---|---|---|---|---|---|---|---|
| 1777981082 | 11.11° C | 92% | 1009.9 hPa | 0 mm | 0 m/s | 39 W/m² | - |
| 1777980778 | 10.56° C | 95% | 1009.9 hPa | 0 mm | 0 m/s | 35 W/m² | - |
| 1777980474 | 10° C | 98% | 1010.2 hPa | 0 mm | 0 m/s | 32 W/m² | - |
| 1777980173 | 10° C | 99% | 1009.7 hPa | 0 mm | 0 m/s | 30 W/m² | - |
| 1777979873 | 9.44° C | 99% | 1009.8 hPa | 0 mm | 0 m/s | 26 W/m² | - |
| 1777979569 | 8.33° C | 99% | 1009.6 hPa | 0 mm | 0 m/s | 23 W/m² | - |
| 1777979265 | 7.78° C | 99% | 1009.5 hPa | 0 mm | 0 m/s | 19 W/m² | - |
| 1777978963 | 7.78° C | 99% | 1009.8 hPa | 0 mm | 0 m/s | 14 W/m² | - |
| 1777978659 | 7.78° C | 99% | 1009.4 hPa | 0 mm | 0 m/s | 12 W/m² | - |
| 1777978354 | 7.78° C | 99% | 1009.5 hPa | 0 mm | 0 m/s | 9 W/m² | - |
| 1777978051 | 7.78° C | 99% | 1009.4 hPa | 0 mm | 0 m/s | 6 W/m² | - |
| 1777977749 | 7.78° C | 99% | 1009.5 hPa | 0 mm | 0 m/s | 4 W/m² | - |
| 1777977445 | 7.78° C | 99% | 1009.6 hPa | 0 mm | 0 m/s | 2 W/m² | - |
| 1777977143 | 7.78° C | 99% | 1009.7 hPa | 0 mm | 0 m/s | 0 W/m² | - |
| 1777976840 | 7.78° C | 99% | 1009.8 hPa | 0 mm | 0 m/s | 0 W/m² | - |
| 1777976538 | 7.78° C | 99% | 1009.5 hPa | 0 mm | 0 m/s | 0 W/m² | - |
| 1777976237 | 8.33° C | 99% | 1009.7 hPa | 0 mm | 0 m/s | 0 W/m² | - |
| 1777975932 | 8.33° C | 99% | 1009.6 hPa | 0 mm | 0 m/s | 0 W/m² | - |
| 1777975629 | 8.33° C | 99% | 1009.7 hPa | 0 mm | 0 m/s | 0 W/m² | - |
| 1777975326 | 8.33° C | 99% | 1009.6 hPa | 0 mm | 0 m/s | 0 W/m² | - |
| 1777975021 | 8.33° C | 99% | 1009.6 hPa | 0 mm | 0 m/s | 0 W/m² | - |
| 1777974719 | 8.33° C | 99% | 1009.6 hPa | 0 mm | 0 m/s | 0 W/m² | - |
| 1777974415 | 8.33° C | 99% | 1009.7 hPa | 0 mm | 0 m/s | 0 W/m² | - |
| 1777974111 | 8.33° C | 99% | 1009.4 hPa | 0 mm | 0 m/s | 0 W/m² | - |
| 1777973808 | 8.33° C | 99% | 1009.5 hPa | 0 mm | 0 m/s | 0 W/m² | - |
* Rain latest hour (hover to see other rain measurements)
** Current wind speed in m/s (hover to see current wind gust speed)